Regional Weather Roundup
Issued by NWS San Angelo, TX

Home | Current Version | Previous Version | Text Only | Print | Product List | Glossary On
Versions: 1 2 3 4 5 6 7 8 9 10 11 12 13 14 15 16 17 18 19 20 21 22 23 24 25 26 27 28 29 30 31 32 33 34 35 36 37 38 39 40 41 42 43 44 45 46 47 48 49 50
000
ASUS44 KSJT 260611
RWRSJT
WEST CENTRAL TEXAS REGIONAL WEATHER ROUNDUP
NATIONAL WEATHER SERVICE SAN ANGELO TX
100 AM CDT TUE JUL 26 2016

NOTE: "FAIR" INDICATES FEW OR NO CLOUDS BELOW 12,000 FEET WITH NO
SIGNIFICANT WEATHER AND/OR OBSTRUCTIONS TO VISIBILITY.

TXZ049-054-064>066-071>073-076>078-098-099-113-114-127-128-139-140-
154-155-168>170-260700
...LOCATIONS ACROSS WEST CENTRAL TEXAS...

CITY           SKY/WX    TMP DP  RH WIND       PRES   REMARKS
SAN ANGELO     CLEAR     79  67  66 S6        29.99F
ABILENE        CLEAR     79  67  66 S8        30.01R
DYESS AFB      CLEAR     80  67  64 SE14      29.99R
JUNCTION       MOCLDY    75  69  81 VRB3      29.99F
SWEETWATER     CLEAR     81  64  57 SE13      30.04S
BROWNWOOD      PTCLDY    75  70  83 CALM      29.98F
COLEMAN        CLEAR     77  67  71 S6        30.00F
SONORA         PTCLDY    79  66  65 SE8       30.05F
OZONA          FAIR      81  64  57 SE13      30.04R
BRADY          NOT AVBL
$$

TEXAS PANHANDLE/OKLAHOMA PANHANDLE

CITY           SKY/WX    TMP DP  RH WIND       PRES   REMARKS
AMARILLO       MOCLDY    73  59  61 W7        30.15S
BORGER         PTCLDY    83  66  56 E6        30.11S
CANADIAN       MOCLDY    80  69  69 E7        30.07S
DALHART        CLOUDY    71  62  73 S7        30.19R
DUMAS          CLOUDY    73  59  61 CALM      30.15S
GUYMON         NOT AVBL
HEREFORD       MOCLDY    71  61  71 W10       30.19S
PAMPA          PTCLDY    75  67  74 SE8       30.12F
PERRYTON       PTCLDY    75  67  78 E7        30.11S
$$

SOUTHERN PANHANDLE/SOUTH PLAINS/ROLLING PLAINS

CITY           SKY/WX    TMP DP  RH WIND       PRES   REMARKS
LUBBOCK        MOCLDY    78  60  53 N12       30.10S
SNYDER           N/A     84  64  51 SE10G17   30.03S
CHILDRESS      CLOUDY    83  68  60 E5        30.01S
SEMINOLE       CLOUDY    81  58  45 NE3       30.09S
$$

PERMIAN BASIN

CITY           SKY/WX    TMP DP  RH WIND       PRES   REMARKS
MIDLAND        CLOUDY    88  58  36 E9        30.02S
ODESSA         CLOUDY    87  57  35 SE8       30.04R
WINK           CLEAR     87  56  34 E8        30.00R
$$

FAR WEST/SOUTHWEST MOUNTAINS/TRANS PECOS

CITY           SKY/WX    TMP DP  RH WIND       PRES   REMARKS
ALPINE         CLEAR     79  54  41 SE5       30.20R
DRYDEN           N/A     87  62  43 E8        29.96R
EL PASO        PTCLDY    89  48  24 E13       30.04R
FORT STOCKTON  CLEAR     84  60  44 S6        30.02S
GUADALUPE PASS CLEAR     78  51  38 NE16      30.22S
MARFA          CLEAR     76  54  46 E12       30.18R
PECOS          CLEAR     86  57  36 E8        29.99S
$$

DALLAS/FORT WORTH METROPLEX

CITY           SKY/WX    TMP DP  RH WIND       PRES   REMARKS
DFW AIRPORT    MOCLDY    80  71  74 S6        29.94R
FTW MEACHAM    CLEAR     80  70  71 S7        29.95R
DAL-EXECUTIVE  PTCLDY    78  70  76 CALM      29.95R
GRAND PRAIRIE  CLEAR     80  71  73 SW5       29.96R
ADDISON        CLEAR     82  75  79 CALM      29.96R
MESQUITE       MOCLDY    75  75 100 CALM      29.95R
LANCASTER      CLOUDY    78  72  82 CALM      29.96R
$$

NORTH CENTRAL TEXAS

CITY           SKY/WX    TMP DP  RH WIND       PRES   REMARKS
SHRMAN/DENISON CLEAR     79  73  81 CALM      29.97S
GAINESVILLE    CLEAR     76  71  83 CALM      29.99R
BRIDGEPORT     CLEAR     75  73  91 CALM      29.98R
DENTON         CLEAR     78  70  76 CALM      29.94S
WAXAHACHIE     CLEAR     74  72  92 CALM      29.96R
GRANBURY       CLEAR     80  69  70 CALM      29.97S
$$

WESTERN NORTH TEXAS

CITY           SKY/WX    TMP DP  RH WIND       PRES   REMARKS
WICHITA FALLS  PTCLDY    78  71  79 SE5       29.96S
VERNON         CLEAR     83  67  59 SE5       29.98F
BRECKENRIDGE   CLEAR     80  68  67 S7        29.98R
COMANCHE       CLEAR     75  71  88 SW3       29.98S
$$

CENTRAL AND SOUTH CENTRAL TEXAS

CITY           SKY/WX    TMP DP  RH WIND       PRES   REMARKS
AUSTIN/BERGSTM PTCLDY    77  76  96 CALM      29.92S
WACO           PTCLDY    74  72  93 CALM      29.93F
HILLSBORO      PTCLDY    72  71  96 CALM      29.95R
TEMPLE         PTCLDY    74  72  93 CALM      29.94F
KILLEEN-GRAY   PTCLDY    74  71  88 CALM      29.93F
FORT HOOD      PTCLDY    75  71  89 SW5       29.92F
GEORGETOWN     PTCLDY    75  72  88 CALM      29.94S
LAGO VISTA     FAIR      75  74  94 CALM      29.96F
SAN MARCOS     CLOUDY    77  75  94 SW5       29.95S
NEW BRAUNFELS  MOCLDY    74  72  93 CALM      29.92S
RANDOLPH AFB   CLOUDY    73  73 100 CALM      29.93S
SAN ANTONIO    CLOUDY    74  71  91 E5        29.94S
STINSON        LGT RAIN  74  71  91 CALM      29.91F
PLEASANTON     NOT AVBL
LA GRANGE        N/A     76  75  96 CALM      29.89F
GIDDINGS       PTCLDY    74  73  93 CALM      29.96S
$$

EAST TEXAS

CITY           SKY/WX    TMP DP  RH WIND       PRES   REMARKS
PARIS          PTCLDY    77  66  69 CALM      29.97R
CLARKSVILLE    NOT AVBL
TYLER          PTCLDY    77  72  84 NW3       29.93S
LONGVIEW       CLEAR     75  73  93 CALM      29.91S
PALESTINE      PTCLDY    75  75 100 CALM      29.94R FOG
NACOGDOCHES    CLEAR    N/A N/A N/A CALM      29.90F
$$

TEXAS HILL COUNTRY AND EDWARDS PLATEAU

CITY           SKY/WX    TMP DP  RH WIND       PRES   REMARKS
LLANO          CLOUDY    73  73 100 CALM      29.98F
HORSESHOE BAY  FAIR      74  73  96 CALM      29.95F FOG
KERRVILLE      CLOUDY    73  71  93 CALM      29.99S
FREDERICKSBRG  PTCLDY    72  70  92 SW3       29.98F
ROCKSPRINGS    CLOUDY    72  70  94 SE7       30.03F
HONDO          LGT RAIN  74  72  93 CALM      29.96F
UVALDE         CLOUDY    77  70  79 E9        29.96S
DEL RIO        MOCLDY    85  69  58 E17G24    29.91R
$$

SOUTHEAST TEXAS

CITY           SKY/WX    TMP DP  RH WIND       PRES   REMARKS
COLLEGE STN    PTCLDY    75  73  93 NW3       29.91F
CALDWELL       CLEAR     73  73 100 CALM      29.94F
CROCKETT       PTCLDY    73  73 100 MISG      29.95S FOG
BRENHAM        CLEAR     75  74  98 CALM      29.91F
HUNTSVILLE     CLOUDY    75  74  96 NW3       29.91S
CONROE         CLOUDY    74  73  97 E3        29.91R FOG
HOUSTON BUSH   MOCLDY    78  73  84 NW3       29.89F
HOUSTON HOBBY  MOCLDY    79  76  90 CALM      29.90S
PERLAND        CLOUDY    80  77  90 CALM      29.91F
WHARTON        PTCLDY    74  73  97 CALM      29.90F
$$

THE UPPER TEXAS COAST

CITY           SKY/WX    TMP DP  RH WIND       PRES   REMARKS
ORANGE         CLOUDY    75  73  93 CALM      29.92F FOG
PORT ARTHUR    FOG       75  74  96 NW3       29.90F VSB 3/4
GALVESTON      PTCLDY    80  78  94 S6        29.91S
ANGLETON       CLOUDY    79  76  90 CALM      29.89F
BAY CITY       MOCLDY    78  77  96 CALM      29.90S
$$

TEXAS COASTAL BEND, RIO GRANDE PLAINS DEEP SOUTH TEXAS

CITY           SKY/WX    TMP DP  RH WIND       PRES   REMARKS
VICTORIA       CLOUDY    77  74  90 CALM      29.90F
BEEVILLE       FAIR      80  80  98 CALM      29.90F
ROCKPORT       CLOUDY    85  76  74 VRB5      29.88F
PORT ARANSAS   PTCLDY    84  79  86 S12G17    29.88F
PORT LAVACA    MOCLDY    81  77  89 CALM      29.89F
CORPUS CHRISTI MOCLDY    82  78  88 S7        29.88F
KINGSVILLE NAS PTCLDY    81  80  97 SE8       29.88F
COTULLA        TSTM      75  73  93 E17G30    29.94R FOG
LAREDO         PTCLDY    87  69  54 SE13      29.88S
BROWNSVILLE    CLEAR     82  77  84 SE10      29.89F
PORT ISABEL    PTCLDY    83  78  85 SE9       29.89S
HEBBRONVILLE   MOCLDY    83  72  69 S12       29.90F
MCALLEN        PTCLDY    85  77  77 SE13      29.89F
WESLACO        PTCLDY    78  11   8 SE8       29.89S
FALFURRIAS     PTCLDY    82  75  79 SE5       29.88F
EDINBURG       CLEAR     83  76  79 SE6       29.89S
$$




USA.gov is the U.S. government's official web portal to all federal, state and local government web resources and services.